[[{"header":{"parameterUnit":"m.s-1","parameterCategory":1,"la1":30.2992,"la2":30.254,"lo1":-89.0895,"lo2":-89.0443,"dy":0.0025,"dx":0.0025,"nx":19,"ny":19,"refTime":"2026-04-01T21:00:00:Z","depth":0,"parameterNumber":2,"parameterNumberName":"U-component_of_WINDS"},"data":[0,0,0,-5.49,-5.4904,-5.5089,-5.5089,-5.5332,-5.5335,0,0,0,0,0,0,0,0,0,0,0,-5.485,-5.4852,-5.4899,-5.4904,-5.5089,-5.5089,-5.5332,-5.5335,0,0,0,0,0,0,0,0,0,0,0,-5.4849,-5.4852,-5.4854,-5.4905,-5.5088,-5.5089,-5.5331,-5.5189,0,0,0,0,0,0,0,0,0,0,-5.5009,-5.4968,-5.4851,-5.4854,-5.4906,-5.5088,-5.5089,-5.5182,-5.5198,-5.5252,0,-5.5302,0,-5.5323,-5.5351,-5.5352,0,0,0,-5.49,-5.4955,-5.5001,-5.4854,-5.4908,-5.5088,-5.5004,-5.5191,-5.5209,-5.5273,-5.5306,-5.5314,-5.5327,-5.5353,-5.5354,-5.5681,-5.5682,0,0,-5.489,-5.4886,-5.4988,-5.5012,-5.4986,-5.4998,-5.501,-5.5202,-5.5237,-5.5306,-5.532,-5.5331,-5.5355,-5.5357,-5.5679,-5.5681,0,0,0,-5.4863,-5.4879,-5.4919,-5.5003,-5.5036,-5.5004,-5.5017,-5.5228,-5.5242,-5.5323,-5.5333,-5.5356,-5.5359,-5.5677,-5.568,-5.576,0,0,0,-5.4857,-5.4864,-5.4915,-5.4915,-5.5032,-5.5134,-5.5039,-5.5228,-5.525,-5.5332,-5.5356,-5.5362,-5.5675,-5.5679,-5.5754,-5.5797,0,0,0,-5.4836,-5.4861,-5.489,-5.4914,-5.4994,-5.5131,-5.5156,-5.5233,-5.5257,-5.5353,-5.5362,-5.5674,-5.5678,-5.5748,-5.5788,-5.5881,0,0,0,-5.4813,-5.4959,-5.4891,-5.5058,-5.4992,-5.5181,-5.5155,-5.5295,-5.5387,-5.5358,-5.5676,-5.568,-5.5746,-5.5783,-5.5875,-5.5956,-5.599,0,0,-5.4994,-5.498,-5.5079,-5.5024,-5.5223,-5.5153,-5.5364,-5.5451,-5.5464,-5.5607,-5.5616,-5.5756,-5.5788,-5.588,-5.6188,-5.6215,0,0,0,-5.5135,-5.5205,-5.5259,-5.5347,-5.5418,-5.5482,-5.5538,-5.557,-5.5692,-5.5537,-5.5816,-5.5835,-5.5889,-5.5928,-5.5951,-5.5996,-5.5698,-5.5698,-5.5697,-5.5383,-5.5393,-5.5556,-5.5588,-5.5673,-5.573,-5.5799,-5.5853,-5.5837,-5.5902,-5.5944,-5.613,-5.6176,-5.6193,-5.6241,-5.599,-5.599,-5.5991,-5.5991,-5.5648,-5.5748,-5.5725,-5.5874,-5.5883,-5.6009,-5.607,-5.6054,-5.6171,-5.61,-5.6148,-5.6065,-5.6223,-5.6264,-5.5997,-5.5996,-5.5995,-5.5995,-5.5994,-5.5809,-5.5858,-5.5897,-5.6025,-5.6122,-5.615,-5.6264,-5.6268,-5.6273,-5.6321,-5.6364,-5.6363,-5.636,-5.6342,-5.6343,-5.6343,-5.6344,-5.6344,-5.6345,-5.596,-5.6001,-5.6096,-5.6185,-5.6242,-5.6318,-5.6378,-5.6433,-5.6496,-5.649,-5.6491,-5.6466,-5.6238,-5.6178,-5.6355,-5.6353,-5.6352,-5.6351,-5.635,-5.6219,-5.6161,-5.6309,-5.6366,-5.6471,-5.6567,-5.6573,-5.6686,-5.6733,-5.6789,-5.6757,-5.6588,-5.6573,-5.6554,-5.6505,-5.6756,-5.6756,-5.6756,-5.6756,-5.6353,-5.6347,-5.6499,-5.659,-5.668,-5.67,-5.6866,-5.6914,-5.6955,-5.6985,-5.695,-5.6886,-5.6867,-5.6863,-5.6838,-5.6792,-5.711,-5.7111,-5.7111,-5.6511,-5.6515,-5.6654,-5.6695,-5.6777,-5.6848,-5.7003,-5.7108,-5.7143,-5.7125,-5.7007,-5.6992,-5.6889,-5.6856,-5.6832,-5.6793,-5.6708,0,0]},{"header":{"parameterUnit":"m.s-1","parameterCategory":1,"la1":30.2992,"la2":30.254,"lo1":-89.0895,"lo2":-89.0443,"dy":0.0025,"dx":0.0025,"nx":19,"ny":19,"refTime":"2026-04-01T21:00:00:Z","depth":0,"parameterNumber":3,"parameterNumberName":"V-component_of_WINDS"},"data":[0,0,0,2.5614,2.5615,2.565,2.565,2.5701,2.5701,0,0,0,0,0,0,0,0,0,0,0,2.5607,2.5608,2.5614,2.5615,2.565,2.565,2.5701,2.5701,0,0,0,0,0,0,0,0,0,0,0,2.5607,2.5608,2.5608,2.5615,2.565,2.565,2.5701,2.5672,0,0,0,0,0,0,0,0,0,0,2.5637,2.5634,2.5608,2.5608,2.5615,2.565,2.565,2.567,2.5674,2.5688,0,2.5701,0,2.5702,2.5705,2.5705,0,0,0,2.5612,2.5632,2.5638,2.5608,2.5616,2.565,2.5633,2.5672,2.5676,2.5692,2.5702,2.5704,2.5703,2.5706,2.5706,2.5799,2.58,0,0,2.561,2.5615,2.5635,2.5641,2.5636,2.5632,2.5634,2.5674,2.5685,2.5702,2.5705,2.5704,2.5706,2.5706,2.5799,2.5799,0,0,0,2.5606,2.5614,2.5619,2.5639,2.5645,2.5633,2.5636,2.5684,2.5685,2.5705,2.5705,2.5706,2.5707,2.5798,2.5799,2.5834,0,0,0,2.5605,2.5612,2.5619,2.5622,2.5644,2.5665,2.5644,2.5682,2.5686,2.5704,2.5706,2.5708,2.5797,2.5798,2.5832,2.5849,0,0,0,2.5604,2.5612,2.5619,2.5623,2.5638,2.5664,2.5667,2.5683,2.5686,2.5706,2.5708,2.5797,2.5798,2.583,2.5846,2.5877,0,0,0,2.5604,2.5648,2.5619,2.5669,2.5638,2.5686,2.5667,2.5702,2.5723,2.5707,2.5797,2.5799,2.5829,2.5844,2.5874,2.5903,2.5916,0,0,2.5663,2.5655,2.5684,2.5659,2.5714,2.568,2.5739,2.5752,2.5748,2.5782,2.5784,2.5832,2.5846,2.5876,2.5985,2.5995,0,0,0,2.5705,2.5726,2.5739,2.576,2.5772,2.5784,2.5787,2.5792,2.5821,2.5767,2.5851,2.5859,2.5877,2.589,2.5899,2.5914,2.5805,2.5805,2.5805,2.5796,2.579,2.5838,2.5837,2.5857,2.5861,2.5877,2.5885,2.5871,2.5892,2.5902,2.5968,2.5985,2.5991,2.6007,2.5916,2.5916,2.5917,2.5917,2.5883,2.5912,2.5895,2.5935,2.5929,2.5962,2.5968,2.5958,2.5988,2.596,2.5975,2.5944,2.6002,2.6016,2.5919,2.5919,2.5918,2.5918,2.5918,2.5942,2.5955,2.5962,2.5993,2.6017,2.6014,2.6045,2.6037,2.603,2.6045,2.6055,2.6055,2.6054,2.6051,2.6051,2.6051,2.6051,2.6051,2.6052,2.6001,2.6008,2.6035,2.6053,2.6066,2.6083,2.6089,2.6102,2.6114,2.6106,2.6106,2.6091,2.6009,2.5989,2.6055,2.6055,2.6054,2.6054,2.6053,2.6092,2.6071,2.6113,2.6126,2.6148,2.6173,2.6164,2.6191,2.62,2.6216,2.6198,2.6139,2.613,2.6123,2.6107,2.6199,2.6199,2.6199,2.6199,2.6142,2.6138,2.618,2.6203,2.6224,2.622,2.6268,2.6274,2.6276,2.6282,2.6267,2.6244,2.6238,2.6233,2.6224,2.6208,2.6324,2.6324,2.6325,2.6198,2.6196,2.6238,2.6241,2.6258,2.6273,2.6318,2.6344,2.6342,2.6329,2.6286,2.6281,2.6244,2.6232,2.6218,2.6204,2.6174,0,0]}]]